QPF
0.00 0.00 0.00 0.00 0.00 0.00 0.00 0.00 0.00 0.00 0.00 0.00 0.00 0.00 0.00 0.00 0.00 0.00 0.00 0.00 0.01 0.01 0.01 0.01 0.01 0.03 0.04 0.02 0.02 0.02 0.02 0.01 0.01 0.01 0.01 0.01 0.01 0.01 0.00 0.00 0.00 0.00 0.01 0.01
0.00 0.00 0.00 0.00 0.00 0.00 0.00 0.00 0.00 0.00 0.00 0.00 0.00 0.00 0.00 0.00 0.00 0.00 0.00 0.00 0.00 0.01 0.01 0.01 0.01 0.03 0.04 0.01 0.02 0.02 0.02 0.01 0.01 0.00 0.01 0.01 0.00 0.00 0.00 0.01 0.00 0.00 0.00 0.01
0.00 0.00 0.00 0.00 0.00 0.00 0.00 0.00 0.00 0.00 0.00 0.00 0.00 0.00 0.00 0.00 0.00 0.00 0.00 0.00 0.00 0.00 0.00 0.00 0.01 0.01 0.04 0.02 0.02 0.02 0.01 0.01 0.01 0.00 0.00 0.00 0.01 0.01 0.01 0.00 0.00 0.00 0.00 0.00
0.00 0.00 0.00 0.00 0.00 0.00 0.00 0.00 0.00 0.01 0.01 0.01 0.00 0.00 0.00 0.00 0.00 0.00 0.00 0.00 0.00 0.00 0.00 0.00 0.00 0.01 0.02 0.03 0.03 0.03 0.01 0.01 0.01 0.00 0.01 0.01 0.01 0.01 0.00 0.00 0.01 0.01 0.00 0.00
0.00 0.00 0.00 0.00 0.00 0.00 0.00 0.00 0.00 0.01 0.00 0.00 0.00 0.01 0.01 0.00 0.00 0.00 0.00 0.00 0.00 0.00 0.00 0.00 0.00 0.01 0.01 0.02 0.02 0.03 0.02 0.01 0.01 0.01 0.01 0.00 0.00 0.00 0.00 0.00 0.01 0.00 0.01 0.01
0.00 0.00 0.00 0.00 0.00 0.00 0.00 0.00 0.00 0.00 0.00 0.01 0.00 0.01 0.01 0.00 0.00 0.00 0.00 0.00 0.00 0.00 0.00 0.00 0.00 0.01 0.01 0.01 0.01 0.02 0.02 0.01 0.01 0.01 0.01 0.00 0.00 0.00 0.00 0.00 0.01 0.01 0.00 0.00
0.00 0.00 0.00 0.00 0.00 0.00 0.00 0.01 0.01 0.00 0.00 0.00 0.00 0.00 0.00 0.00 0.00 0.00 0.00 0.00 0.00 0.00 0.00 0.00 0.01 0.01 0.01 0.01 0.01 0.01 0.01 0.01 0.00 0.00 0.00 0.00 0.00 0.00 0.00 0.00 0.01 0.01 0.00 0.00
0.00 0.00 0.00 0.00 0.00 0.00 0.00 0.00 0.01 0.01 0.00 0.00 0.00 0.00 0.00 0.00 0.00 0.00 0.00 0.00 0.00 0.00 0.00 0.00 0.01 0.01 0.01 0.01 0.01 0.01 0.01 0.01 0.00 0.00 0.00 0.00 0.00 0.00 0.00 0.00 0.00 0.00 0.00 0.00
0.00 0.00 0.00 0.00 0.00 0.00 0.00 0.00 0.00 0.01 0.00 0.00 0.00 0.00 0.00 0.00 0.00 0.00 0.00 0.01 0.01 0.00 0.01 0.01 0.01 0.01 0.01 0.01 0.01 0.02 0.01 0.01 0.01 0.01 0.00 0.00 0.00 0.00 0.00 0.00 0.00 0.00 0.00 0.00
0.00 0.00 0.00 0.00 0.00 0.00 0.00 0.00 0.00 0.01 0.01 0.00 0.00 0.00 0.00 0.00 0.00 0.01 0.01 0.00 0.00 0.00 0.02 0.02 0.01 0.01 0.01 0.01 0.01 0.02 0.01 0.01 0.01 0.00 0.00 0.00 0.00 0.00 0.00 0.00 0.00 0.00 0.00 0.00
0.00 0.00 0.00 0.00 0.00 0.00 0.00 0.00 0.00 0.00 0.00 0.00 0.00 0.00 0.00 0.01 0.01 0.01 0.01 0.01 0.00 0.01 0.03 0.02 0.01 0.01 0.01 0.01 0.01 0.01 0.01 0.01 0.01 0.01 0.01 0.01 0.00 0.00 0.00 0.00 0.00 0.00 0.00 0.00
0.00 0.00 0.00 0.00 0.00 0.00 0.00 0.00 0.00 0.00 0.00 0.00 0.00 0.00 0.00 0.01 0.01 0.01 0.01 0.00 0.00 0.00 0.01 0.01 0.01 0.00 0.00 0.00 0.00 0.01 0.01 0.01 0.01 0.01 0.01 0.02 0.02 0.02 0.01 0.00 0.00 0.00 0.01 0.01
0.00 0.00 0.00 0.00 0.00 0.00 0.00 0.00 0.00 0.00 0.00 0.00 0.00 0.00 0.00 0.00 0.00 0.01 0.01 0.00 0.00 0.00 0.00 0.00 0.00 0.00 0.00 0.00 0.00 0.00 0.00 0.01 0.01 0.01 0.02 0.03 0.03 0.02 0.03 0.02 0.01 0.00 0.01 0.01
0.00 0.00 0.00 0.00 0.00 0.00 0.00 0.00 0.00 0.00 0.00 0.00 0.00 0.00 0.00 0.00 0.01 0.01 0.00 0.00 0.00 0.00 0.00 0.00 0.00 0.00 0.00 0.00 0.00 0.00 0.00 0.00 0.01 0.02 0.03 0.05 0.05 0.02 0.02 0.02 0.01 0.01 0.01 0.01
0.00 0.00 0.00 0.00 0.00 0.00 0.00 0.00 0.00 0.00 0.00 0.00 0.00 0.00 0.00 0.00 0.01 0.00 0.00 0.00 0.00 0.00 0.00 0.00 0.00 0.00 0.00 0.00 0.00 0.00 0.00 0.00 0.01 0.01 0.02 0.04 0.05 0.03 0.02 0.01 0.01 0.01 0.01 0.01
0.00 0.00 0.00 0.00 0.00 0.00 0.00 0.00 0.00 0.00 0.00 0.00 0.00 0.00 0.00 0.00 0.00 0.00 0.00 0.00 0.00 0.01 0.00 0.00 0.00 0.00 0.00 0.00 0.00 0.00 0.00 0.00 0.00 0.01 0.01 0.03 0.04 0.04 0.02 0.01 0.01 0.01 0.02 0.01
0.00 0.00 0.00 0.00 0.00 0.00 0.00 0.00 0.00 0.00 0.00 0.00 0.00 0.00 0.00 0.00 0.00 0.00 0.00 0.00 0.00 0.00 0.00 0.00 0.00 0.00 0.00 0.00 0.00 0.00 0.00 0.00 0.01 0.01 0.01 0.03 0.04 0.04 0.04 0.04 0.03 0.03 0.02 0.02
0.00 0.00 0.00 0.00 0.00 0.00 0.00 0.00 0.00 0.00 0.00 0.00 0.00 0.00 0.00 0.00 0.00 0.00 0.00 0.00 0.00 0.00 0.00 0.00 0.00 0.00 0.00 0.00 0.00 0.00 0.00 0.00 0.01 0.01 0.01 0.02 0.03 0.04 0.04 0.04 0.03 0.02 0.02 0.01
0.00 0.00 0.00 0.00 0.00 0.00 0.00 0.00 0.00 0.00 0.00 0.00 0.01 0.01 0.01 0.01 0.00 0.00 0.00 0.00 0.00 0.00 0.00 0.00 0.00 0.00 0.00 0.00 0.00 0.00 0.00 0.00 0.00 0.00 0.01 0.01 0.03 0.03 0.03 0.02 0.01 0.01 0.01 0.01
0.00 0.00 0.00 0.00 0.00 0.00 0.00 0.00 0.00 0.01 0.01 0.01 0.01 0.01 0.01 0.00 0.00 0.00 0.00 0.00 0.00 0.00 0.00 0.00 0.00 0.00 0.00 0.00 0.00 0.00 0.00 0.00 0.00 0.00 0.00 0.01 0.01 0.02 0.03 0.02 0.02 0.02 0.01 0.01
0.00 0.00 0.00 0.00 0.00 0.00 0.00 0.00 0.00 0.01 0.01 0.00 0.00 0.00 0.00 0.00 0.00 0.00 0.00 0.00 0.00 0.00 0.00 0.00 0.00 0.00 0.00 0.00 0.00 0.00 0.00 0.00 0.00 0.00 0.00 0.00 0.01 0.01 0.03 0.04 0.03 0.02 0.01 0.01
0.00 0.00 0.00 0.01 0.01 0.00 0.00 0.00 0.01 0.01 0.00 0.00 0.00 0.00 0.00 0.00 0.00 0.00 0.00 0.00 0.01 0.01 0.00 0.00 0.00 0.00 0.00 0.00 0.00 0.00 0.00 0.00 0.00 0.00 0.00 0.00 0.00 0.01 0.02 0.03 0.03 0.02 0.01 0.01
0.00 0.00 0.01 0.01 0.01 0.01 0.00 0.00 0.00 0.00 0.00 0.00 0.00 0.00 0.00 0.00 0.00 0.00 0.00 0.01 0.01 0.00 0.00 0.00 0.00 0.00 0.00 0.00 0.00 0.00 0.00 0.00 0.00 0.00 0.00 0.00 0.00 0.00 0.01 0.02 0.02 0.02 0.01 0.01
0.00 0.00 0.00 0.00 0.00 0.00 0.00 0.00 0.00 0.00 0.00 0.00 0.00 0.00 0.00 0.00 0.00 0.00 0.00 0.01 0.00 0.00 0.00 0.00 0.00 0.00 0.00 0.00 0.00 0.00 0.00 0.00 0.00 0.00 0.00 0.00 0.00 0.00 0.01 0.02 0.02 0.01 0.01 0.01
0.00 0.00 0.00 0.00 0.00 0.00 0.00 0.00 0.00 0.00 0.00 0.00 0.00 0.00 0.00 0.01 0.00 0.00 0.00 0.00 0.00 0.00 0.00 0.00 0.00 0.00 0.00 0.00 0.00 0.00 0.00 0.00 0.00 0.00 0.00 0.00 0.00 0.00 0.00 0.02 0.03 0.01 0.01 0.01
0.00 0.00 0.00 0.00 0.00 0.00 0.00 0.00 0.00 0.00 0.01 0.01 0.01 0.00 0.00 0.00 0.00 0.00 0.00 0.00 0.00 0.00 0.00 0.00 0.00 0.00 0.00 0.00 0.00 0.00 0.00 0.00 0.00 0.00 0.00 0.00 0.00 0.00 0.00 0.01 0.02 0.02 0.01 0.01
MSLP
1017.70 1018.51 1019.21 1019.75 1020.14 1020.40 1020.56 1020.68 1020.78 1020.88 1020.96 1021.02 1021.03 1020.96 1020.82 1020.60 1020.35 1020.09 1019.87 1019.71 1019.64 1019.65 1019.73 1019.84 1019.94 1020.00 1020.00 1019.95 1019.85 1019.74 1019.63 1019.57 1019.56 1019.59 1019.66 1019.72 1019.75 1019.72 1019.61 1019.43 1019.20 1018.96 1018.75 1018.61
1018.38 1019.12 1019.73 1020.18 1020.50 1020.70 1020.85 1020.97 1021.10 1021.24 1021.38 1021.49 1021.52 1021.46 1021.30 1021.05 1020.75 1020.43 1020.16 1019.97 1019.88 1019.88 1019.97 1020.09 1020.21 1020.28 1020.29 1020.23 1020.12 1019.99 1019.87 1019.81 1019.80 1019.86 1019.95 1020.04 1020.10 1020.08 1019.98 1019.79 1019.55 1019.28 1019.03 1018.86
1018.93 1019.58 1020.10 1020.48 1020.74 1020.93 1021.08 1021.23 1021.42 1021.62 1021.81 1021.95 1022.00 1021.92 1021.72 1021.41 1021.04 1020.65 1020.32 1020.08 1019.96 1019.96 1020.05 1020.19 1020.34 1020.44 1020.46 1020.42 1020.32 1020.19 1020.08 1020.02 1020.02 1020.09 1020.19 1020.30 1020.38 1020.38 1020.29 1020.10 1019.85 1019.56 1019.30 1019.10
1019.35 1019.90 1020.34 1020.65 1020.88 1021.07 1021.26 1021.47 1021.72 1021.98 1022.22 1022.39 1022.43 1022.32 1022.07 1021.68 1021.22 1020.75 1020.34 1020.05 1019.90 1019.89 1019.99 1020.17 1020.35 1020.48 1020.55 1020.54 1020.46 1020.35 1020.25 1020.20 1020.21 1020.27 1020.39 1020.50 1020.59 1020.60 1020.52 1020.34 1020.10 1019.81 1019.54 1019.33
1019.66 1020.11 1020.46 1020.73 1020.95 1021.16 1021.39 1021.68 1022.00 1022.33 1022.61 1022.79 1022.81 1022.66 1022.33 1021.86 1021.30 1020.75 1020.27 1019.93 1019.75 1019.73 1019.85 1020.05 1020.27 1020.46 1020.57 1020.60 1020.56 1020.48 1020.40 1020.35 1020.36 1020.42 1020.53 1020.64 1020.73 1020.75 1020.68 1020.52 1020.29 1020.03 1019.77 1019.56
1019.87 1020.22 1020.51 1020.74 1020.97 1021.21 1021.51 1021.86 1022.25 1022.63 1022.94 1023.12 1023.12 1022.92 1022.52 1021.97 1021.34 1020.71 1020.18 1019.79 1019.59 1019.56 1019.69 1019.92 1020.18 1020.41 1020.57 1020.65 1020.65 1020.59 1020.52 1020.48 1020.48 1020.53 1020.62 1020.72 1020.80 1020.82 1020.77 1020.64 1020.44 1020.21 1019.98 1019.78
1019.99 1020.27 1020.51 1020.72 1020.96 1021.25 1021.60 1022.01 1022.45 1022.87 1023.19 1023.36 1023.34 1023.09 1022.64 1022.03 1021.35 1020.68 1020.10 1019.69 1019.47 1019.44 1019.58 1019.82 1020.11 1020.37 1020.57 1020.69 1020.72 1020.69 1020.63 1020.59 1020.57 1020.60 1020.67 1020.75 1020.82 1020.85 1020.81 1020.71 1020.55 1020.36 1020.16 1019.99
1020.04 1020.26 1020.47 1020.69 1020.94 1021.26 1021.66 1022.11 1022.58 1023.01 1023.33 1023.49 1023.44 1023.17 1022.69 1022.05 1021.35 1020.67 1020.08 1019.66 1019.44 1019.41 1019.54 1019.79 1020.08 1020.36 1020.58 1020.72 1020.78 1020.76 1020.72 1020.67 1020.64 1020.65 1020.69 1020.75 1020.80 1020.83 1020.81 1020.74 1020.62 1020.48 1020.32 1020.19
1019.99 1020.19 1020.40 1020.63 1020.91 1021.26 1021.68 1022.15 1022.62 1023.04 1023.34 1023.48 1023.41 1023.12 1022.65 1022.03 1021.35 1020.69 1020.12 1019.72 1019.50 1019.46 1019.58 1019.82 1020.09 1020.36 1020.59 1020.73 1020.80 1020.80 1020.76 1020.71 1020.67 1020.66 1020.67 1020.71 1020.75 1020.77 1020.77 1020.73 1020.66 1020.57 1020.46 1020.36
1019.85 1020.07 1020.30 1020.56 1020.87 1021.24 1021.66 1022.11 1022.56 1022.94 1023.21 1023.32 1023.24 1022.96 1022.51 1021.94 1021.32 1020.72 1020.20 1019.83 1019.62 1019.58 1019.67 1019.87 1020.11 1020.35 1020.54 1020.68 1020.75 1020.76 1020.73 1020.68 1020.64 1020.62 1020.62 1020.64 1020.67 1020.69 1020.70 1020.70 1020.67 1020.62 1020.57 1020.52
1019.62 1019.89 1020.17 1020.47 1020.81 1021.19 1021.59 1022.01 1022.40 1022.73 1022.94 1023.01 1022.92 1022.67 1022.27 1021.78 1021.25 1020.73 1020.29 1019.97 1019.77 1019.72 1019.77 1019.91 1020.09 1020.27 1020.43 1020.54 1020.60 1020.62 1020.60 1020.57 1020.54 1020.52 1020.51 1020.52 1020.55 1020.57 1020.60 1020.62 1020.64 1020.65 1020.65 1020.65
1019.34 1019.68 1020.02 1020.38 1020.75 1021.12 1021.50 1021.85 1022.17 1022.41 1022.56 1022.59 1022.49 1022.27 1021.95 1021.55 1021.13 1020.72 1020.37 1020.10 1019.93 1019.86 1019.86 1019.93 1020.04 1020.15 1020.25 1020.33 1020.37 1020.40 1020.40 1020.39 1020.37 1020.36 1020.36 1020.37 1020.39 1020.42 1020.46 1020.51 1020.56 1020.62 1020.68 1020.73
1019.06 1019.48 1019.89 1020.30 1020.69 1021.05 1021.37 1021.65 1021.87 1022.02 1022.09 1022.07 1021.97 1021.79 1021.55 1021.27 1020.98 1020.70 1020.44 1020.24 1020.09 1020.00 1019.96 1019.95 1019.97 1020.00 1020.04 1020.07 1020.10 1020.12 1020.14 1020.15 1020.16 1020.17 1020.17 1020.19 1020.20 1020.23 1020.28 1020.35 1020.44 1020.54 1020.65 1020.76
1018.82 1019.32 1019.80 1020.25 1020.65 1020.98 1021.24 1021.43 1021.54 1021.59 1021.58 1021.52 1021.42 1021.29 1021.14 1020.98 1020.82 1020.67 1020.53 1020.40 1020.29 1020.19 1020.10 1020.02 1019.95 1019.91 1019.87 1019.86 1019.86 1019.87 1019.90 1019.93 1019.95 1019.97 1019.98 1019.99 1020.00 1020.03 1020.07 1020.15 1020.25 1020.39 1020.55 1020.71
1018.67 1019.23 1019.76 1020.23 1020.62 1020.91 1021.09 1021.18 1021.19 1021.14 1021.05 1020.95 1020.86 1020.79 1020.74 1020.71 1020.69 1020.68 1020.67 1020.63 1020.56 1020.46 1020.34 1020.20 1020.06 1019.93 1019.83 1019.76 1019.72 1019.72 1019.74 1019.77 1019.80 1019.82 1019.82 1019.81 1019.81 1019.81 1019.84 1019.91 1020.02 1020.18 1020.36 1020.57
1018.61 1019.21 1019.77 1020.23 1020.59 1020.82 1020.92 1020.91 1020.81 1020.67 1020.52 1020.40 1020.33 1020.32 1020.37 1020.48 1020.62 1020.76 1020.87 1020.93 1020.93 1020.86 1020.72 1020.55 1020.35 1020.15 1019.99 1019.86 1019.78 1019.74 1019.74 1019.75 1019.76 1019.75 1019.73 1019.69 1019.65 1019.62 1019.61 1019.66 1019.76 1019.91 1020.11 1020.34
1018.63 1019.23 1019.78 1020.21 1020.51 1020.67 1020.68 1020.58 1020.40 1020.18 1019.99 1019.86 1019.82 1019.89 1020.06 1020.31 1020.60 1020.89 1021.14 1021.32 1021.40 1021.38 1021.26 1021.07 1020.83 1020.59 1020.37 1020.19 1020.05 1019.97 1019.92 1019.89 1019.86 1019.81 1019.74 1019.65 1019.55 1019.47 1019.42 1019.43 1019.50 1019.63 1019.82 1020.05
1018.64 1019.23 1019.73 1020.11 1020.35 1020.42 1020.36 1020.17 1019.92 1019.66 1019.45 1019.33 1019.34 1019.50 1019.78 1020.17 1020.62 1021.06 1021.46 1021.76 1021.94 1021.98 1021.90 1021.72 1021.48 1021.21 1020.95 1020.72 1020.54 1020.40 1020.29 1020.20 1020.11 1020.00 1019.86 1019.71 1019.55 1019.40 1019.29 1019.24 1019.27 1019.36 1019.52 1019.73
1018.59 1019.12 1019.56 1019.87 1020.04 1020.04 1019.90 1019.66 1019.37 1019.09 1018.88 1018.80 1018.88 1019.12 1019.52 1020.04 1020.63 1021.22 1021.75 1022.18 1022.46 1022.59 1022.58 1022.43 1022.21 1021.94 1021.65 1021.39 1021.16 1020.97 1020.80 1020.65 1020.48 1020.30 1020.09 1019.87 1019.64 1019.42 1019.25 1019.14 1019.11 1019.15 1019.27 1019.44
1018.38 1018.84 1019.22 1019.46 1019.55 1019.50 1019.32 1019.05 1018.74 1018.47 1018.30 1018.27 1018.43 1018.76 1019.27 1019.91 1020.61 1021.32 1021.97 1022.51 1022.90 1023.12 1023.18 1023.09 1022.91 1022.65 1022.38 1022.10 1021.85 1021.61 1021.39 1021.17 1020.95 1020.69 1020.42 1020.12 1019.82 1019.54 1019.31 1019.13 1019.04 1019.02 1019.08 1019.20
1017.97 1018.38 1018.68 1018.87 1018.91 1018.82 1018.62 1018.35 1018.07 1017.84 1017.72 1017.77 1018.00 1018.42 1019.02 1019.74 1020.54 1021.34 1022.09 1022.71 1023.19 1023.49 1023.63 1023.61 1023.48 1023.28 1023.03 1022.76 1022.50 1022.25 1021.99 1021.73 1021.45 1021.14 1020.81 1020.45 1020.10 1019.76 1019.47 1019.23 1019.07 1019.00 1018.99 1019.05
1017.38 1017.72 1017.98 1018.11 1018.13 1018.03 1017.84 1017.61 1017.39 1017.23 1017.19 1017.32 1017.63 1018.13 1018.79 1019.58 1020.43 1021.29 1022.09 1022.78 1023.31 1023.69 1023.89 1023.95 1023.89 1023.75 1023.55 1023.32 1023.08 1022.83 1022.56 1022.28 1021.97 1021.62 1021.25 1020.85 1020.45 1020.06 1019.71 1019.43 1019.21 1019.07 1019.00 1018.99
1016.64 1016.93 1017.15 1017.26 1017.28 1017.20 1017.07 1016.90 1016.77 1016.70 1016.76 1016.98 1017.36 1017.92 1018.63 1019.45 1020.33 1021.21 1022.02 1022.73 1023.31 1023.73 1023.99 1024.12 1024.13 1024.06 1023.93 1023.75 1023.55 1023.33 1023.08 1022.80 1022.48 1022.11 1021.71 1021.29 1020.85 1020.43 1020.03 1019.69 1019.42 1019.21 1019.07 1019.00
1015.81 1016.07 1016.27 1016.39 1016.43 1016.41 1016.35 1016.29 1016.26 1016.31 1016.48 1016.79 1017.25 1017.86 1018.59 1019.42 1020.29 1021.15 1021.95 1022.66 1023.24 1023.69 1023.99 1024.17 1024.25 1024.25 1024.19 1024.09 1023.94 1023.77 1023.55 1023.29 1022.97 1022.61 1022.20 1021.75 1021.29 1020.83 1020.39 1020.00 1019.67 1019.39 1019.19 1019.03
1014.98 1015.22 1015.41 1015.56 1015.65 1015.71 1015.75 1015.81 1015.91 1016.09 1016.37 1016.77 1017.30 1017.95 1018.70 1019.52 1020.36 1021.18 1021.95 1022.62 1023.19 1023.63 1023.96 1024.19 1024.32 1024.39 1024.39 1024.36 1024.28 1024.15 1023.97 1023.74 1023.45 1023.09 1022.67 1022.21 1021.72 1021.23 1020.75 1020.31 1019.91 1019.57 1019.29 1019.06
1014.19 1014.42 1014.63 1014.82 1014.98 1015.14 1015.30 1015.48 1015.72 1016.02 1016.42 1016.92 1017.51 1018.20 1018.96 1019.75 1020.56 1021.33 1022.04 1022.67 1023.21 1023.64 1023.97 1024.22 1024.39 1024.51 1024.58 1024.59 1024.57 1024.49 1024.36 1024.15 1023.87 1023.52 1023.11 1022.64 1022.13 1021.60 1021.08 1020.58 1020.12 1019.71 1019.35 1019.04
Thickness
5758 5752 5743 5746 5748 5745 5741 5734 5729 5730 5736 5731 5727 5727 5730 5732 5730 5728 5728 5728 5727 5726 5727 5727 5724 5723 5722 5720 5719 5717 5716 5714 5712 5710 5709 5707 5706 5707 5706 5705 5705 5704 5704 5704
5748 5742 5748 5749 5746 5741 5737 5731 5729 5731 5734 5731 5729 5729 5734 5734 5731 5730 5730 5730 5729 5728 5727 5725 5724 5722 5721 5718 5717 5716 5714 5713 5711 5708 5708 5706 5705 5705 5705 5703 5702 5702 5702 5702
5740 5744 5747 5743 5738 5735 5735 5732 5731 5727 5729 5732 5727 5727 5731 5734 5734 5732 5731 5731 5732 5728 5727 5726 5723 5722 5720 5717 5715 5714 5712 5711 5709 5707 5706 5704 5703 5703 5703 5701 5700 5700 5700 5700
5741 5745 5742 5739 5737 5736 5729 5737 5733 5728 5725 5724 5724 5716 5730 5733 5729 5729 5729 5730 5730 5729 5727 5726 5723 5721 5719 5717 5715 5714 5711 5710 5708 5706 5704 5702 5699 5699 5699 5700 5699 5698 5698 5698
5737 5740 5738 5734 5736 5737 5733 5736 5732 5729 5726 5722 5724 5718 5729 5733 5727 5729 5731 5731 5731 5729 5727 5725 5723 5720 5719 5717 5713 5712 5710 5707 5705 5703 5701 5699 5698 5698 5698 5697 5696 5697 5696 5695
5739 5743 5742 5739 5739 5738 5735 5731 5728 5728 5726 5712 5721 5716 5721 5731 5731 5732 5733 5733 5732 5730 5727 5724 5723 5720 5717 5715 5711 5709 5707 5705 5703 5702 5701 5699 5697 5695 5694 5694 5694 5693 5693 5693
5728 5735 5739 5740 5731 5731 5732 5722 5712 5710 5710 5712 5721 5715 5722 5734 5736 5734 5733 5733 5733 5730 5727 5723 5720 5717 5715 5711 5709 5707 5705 5703 5702 5701 5700 5699 5696 5695 5693 5693 5692 5691 5691 5690
5719 5719 5731 5735 5733 5728 5728 5725 5709 5700 5704 5713 5716 5714 5729 5735 5736 5736 5735 5734 5731 5729 5726 5723 5720 5717 5714 5711 5708 5706 5704 5702 5701 5700 5699 5698 5696 5694 5693 5691 5691 5690 5689 5688
5722 5719 5730 5733 5735 5733 5723 5723 5727 5716 5711 5705 5715 5722 5730 5732 5731 5730 5730 5729 5727 5727 5724 5722 5719 5717 5714 5711 5708 5706 5704 5701 5700 5699 5697 5696 5695 5692 5691 5690 5689 5688 5687 5685
5729 5717 5722 5726 5729 5726 5729 5726 5718 5710 5698 5697 5706 5713 5719 5723 5723 5726 5726 5725 5726 5725 5723 5721 5718 5715 5714 5711 5708 5706 5703 5701 5699 5697 5696 5694 5692 5691 5689 5688 5686 5685 5685 5683
5728 5718 5715 5719 5717 5718 5716 5715 5715 5713 5709 5697 5695 5710 5730 5726 5725 5725 5726 5726 5725 5723 5721 5719 5716 5714 5712 5710 5707 5704 5702 5699 5697 5696 5694 5691 5690 5689 5688 5686 5684 5683 5682 5681
5722 5719 5713 5716 5722 5723 5721 5719 5714 5703 5701 5701 5698 5708 5732 5728 5727 5726 5725 5725 5724 5722 5720 5717 5715 5712 5710 5707 5705 5703 5701 5699 5696 5694 5693 5690 5689 5687 5686 5684 5682 5681 5680 5679
5716 5712 5703 5703 5707 5711 5711 5712 5712 5711 5705 5699 5693 5705 5727 5727 5724 5723 5722 5722 5721 5718 5715 5714 5711 5709 5707 5704 5703 5702 5699 5697 5694 5692 5690 5689 5687 5686 5684 5682 5681 5679 5678 5676
5715 5712 5706 5699 5706 5710 5706 5705 5705 5704 5698 5698 5701 5707 5716 5719 5718 5718 5718 5718 5717 5714 5711 5709 5707 5705 5703 5702 5700 5699 5697 5694 5692 5689 5687 5686 5685 5684 5682 5680 5679 5677 5675 5674
5710 5706 5707 5708 5708 5706 5705 5704 5702 5701 5704 5699 5705 5705 5712 5716 5716 5715 5714 5713 5710 5708 5707 5706 5703 5703 5700 5699 5697 5696 5694 5692 5689 5687 5685 5684 5683 5682 5679 5677 5675 5674 5672 5671
5704 5700 5700 5698 5701 5700 5699 5703 5703 5701 5702 5702 5701 5703 5717 5716 5714 5711 5711 5708 5705 5704 5704 5703 5701 5700 5698 5697 5695 5693 5690 5689 5687 5685 5682 5681 5679 5677 5675 5673 5671 5670 5668 5667
5696 5694 5689 5691 5694 5692 5693 5705 5704 5703 5705 5703 5699 5706 5711 5707 5706 5706 5706 5705 5703 5702 5702 5700 5699 5698 5696 5695 5693 5690 5688 5686 5684 5682 5680 5677 5676 5673 5671 5669 5668 5665 5664 5663
5690 5688 5685 5685 5683 5674 5703 5710 5706 5701 5702 5704 5703 5704 5703 5702 5703 5703 5704 5703 5702 5700 5699 5698 5697 5696 5694 5693 5691 5688 5685 5683 5681 5679 5677 5675 5672 5670 5668 5666 5663 5662 5661 5659
5687 5682 5678 5677 5674 5684 5697 5700 5697 5693 5695 5703 5699 5698 5698 5699 5698 5700 5701 5700 5699 5698 5697 5695 5694 5693 5691 5689 5687 5684 5682 5679 5677 5675 5673 5671 5669 5666 5664 5662 5660 5658 5656 5654
5674 5678 5674 5669 5664 5670 5690 5698 5699 5692 5688 5701 5698 5694 5693 5693 5689 5696 5699 5696 5695 5694 5693 5690 5689 5688 5686 5685 5682 5679 5677 5675 5673 5671 5669 5668 5666 5663 5660 5659 5657 5654 5652 5649
5664 5664 5664 5665 5664 5677 5691 5691 5690 5676 5685 5695 5695 5693 5691 5690 5693 5695 5694 5692 5691 5689 5687 5685 5683 5682 5680 5679 5677 5674 5673 5671 5669 5667 5665 5663 5661 5659 5656 5654 5652 5650 5647 5644
5666 5662 5662 5662 5658 5667 5684 5681 5678 5684 5691 5691 5691 5690 5688 5689 5688 5688 5686 5685 5684 5683 5682 5680 5678 5676 5674 5673 5670 5669 5667 5667 5664 5662 5659 5657 5656 5654 5651 5649 5647 5645 5642 5640
5665 5668 5667 5666 5669 5677 5679 5679 5681 5683 5683 5684 5684 5684 5683 5682 5681 5680 5679 5679 5678 5677 5676 5675 5673 5670 5668 5667 5665 5663 5662 5660 5659 5656 5654 5652 5651 5648 5646 5644 5642 5640 5637 5635
5661 5660 5660 5661 5668 5670 5671 5672 5673 5674 5675 5677 5678 5677 5677 5675 5676 5675 5674 5673 5672 5671 5670 5669 5666 5664 5662 5661 5659 5658 5656 5654 5653 5651 5649 5647 5646 5643 5641 5639 5637 5635 5633 5631
5653 5651 5652 5655 5662 5662 5663 5664 5666 5666 5667 5669 5670 5670 5670 5669 5669 5669 5668 5667 5666 5665 5664 5663 5661 5659 5657 5655 5653 5651 5650 5648 5647 5646 5644 5642 5640 5637 5635 5632 5631 5629 5628 5626
5646 5646 5646 5650 5657 5656 5659 5662 5660 5658 5659 5660 5661 5661 5662 5662 5661 5661 5661 5660 5659 5657 5657 5655 5654 5652 5651 5649 5647 5645 5643 5642 5641 5640 5639 5636 5634 5631 5629 5626 5624 5621 5619 5617